Location: Pescara
(42.4670°N, 14.2170°E)
Time: 18:20:22
(UTC+02:00)

ISS - Pass Details

Date: 13 May 2021
Orbit: 417 x 422 km, 51.6° (Epoch: 18 June)

Event Time Altitude Azimuth Distance (km) Brightness Sun altitude
Rises 03:37:38 0° 306° (NW) 2,375 0.0 -19.1°
Reaches altitude 10° 03:39:56 10° 319° (NW) 1,509 -0.8 -18.8°
Maximum altitude 03:42:54 27° 20° (NNE) 841 -1.5 -18.4°
Drops below altitude 10° 03:45:51 10° 81° (E) 1,507 -0.2 -18.1°
Sets 03:48:09 0° 94° (E) 2,370 0.6 -17.8°
